SCP
0 0 0 0 0 0 0 0 0 0 -0 0 0 0 0 0 0 0 0 0 0 0 0 0 0 0 0 0 0 0 0 0 0 1 1 0 1 2 1 1 1 1 1 0
0 0 0 0 0 0 0 0 0 0 0 0 0 0 0 0 0 0 0 0 0 0 0 0 0 0 0 0 0 0 0 0 0 1 0 1 1 1 2 2 1 1 1 1
0 0 0 0 0 0 0 0 0 0 0 0 0 0 0 0 0 0 0 0 0 0 0 0 0 0 0 0 0 0 0 0 0 0 0 0 1 1 1 1 1 1 2 1
0 0 0 0 0 0 0 0 0 0 0 0 0 0 0 0 0 0 0 0 0 0 0 0 0 0 0 0 0 0 0 0 0 0 0 0 0 1 1 1 1 1 1 1
0 0 0 0 0 0 0 0 0 0 0 0 0 0 0 0 0 0 0 0 0 0 0 0 0 0 0 0 0 0 0 0 0 0 0 0 0 0 0 1 1 1 1 1
0 0 0 0 0 0 0 0 0 0 0 0 0 0 0 0 0 0 0 0 0 0 0 0 0 0 0 0 0 0 0 0 0 0 0 0 0 0 0 1 2 1 1 1
0 0 0 0 0 0 0 0 0 0 0 0 0 0 0 0 0 0 0 0 0 0 0 0 0 0 0 0 0 0 0 0 0 0 0 0 0 0 0 0 1 2 1 1
0 0 0 0 0 0 0 0 0 0 0 0 0 0 0 0 0 0 0 0 0 0 0 0 0 0 0 0 0 0 0 0 0 0 0 0 0 0 0 0 0 1 1 1
0 0 0 0 0 0 0 0 0 0 0 0 0 0 0 0 0 0 0 0 0 0 0 0 0 0 0 0 0 0 0 0 0 0 0 0 0 0 0 0 0 0 1 2
0 0 0 0 0 0 0 0 0 0 0 0 0 0 0 0 0 0 0 0 0 0 0 0 0 0 0 0 0 0 0 0 0 0 0 0 0 0 0 0 0 0 0 0
0 0 0 0 0 0 0 0 0 0 0 0 0 0 0 0 0 0 0 0 0 0 0 0 0 0 0 0 0 0 0 0 0 0 0 0 0 0 0 0 0 0 0 0
0 0 0 0 0 0 0 0 0 0 0 0 0 0 0 0 0 0 0 0 0 0 0 0 0 0 0 0 0 0 0 0 0 0 0 0 0 0 0 0 0 0 0 0
0 0 0 0 0 0 0 0 0 0 0 0 0 0 0 0 0 0 0 0 0 0 0 0 0 0 0 0 0 0 0 0 0 0 0 0 0 0 0 0 0 0 0 0
0 0 0 0 0 0 0 0 0 0 0 0 0 0 0 0 0 0 0 0 0 0 0 0 0 0 0 0 0 0 0 0 0 0 0 0 0 0 0 0 0 0 0 0
0 0 0 0 0 0 0 0 0 0 0 0 0 0 0 0 0 0 0 0 0 0 -0 -0 0 0 0 0 0 0 0 0 0 0 0 0 0 0 0 0 0 0 0 0
0 0 0 0 0 0 0 0 0 0 0 0 0 0 0 0 0 0 0 0 0 0 0 -0 -0 -0 -0 -0 0 0 0 0 0 0 0 0 0 0 0 0 0 0 0 0
0 0 0 0 0 0 0 0 0 0 0 0 0 0 0 0 0 0 0 0 0 0 0 0 0 -0 0 -0 0 0 0 0 0 0 0 0 0 0 0 0 0 0 0 0
-0 0 0 0 0 0 0 0 0 0 0 0 0 0 0 0 0 0 0 0 0 -0 0 -0 0 0 -0 0 0 -0 -0 0 0 0 0 0 0 0 0 0 0 0 0 0
-0 0 0 0 0 0 0 0 0 0 0 0 0 0 0 0 0 0 0 0 0 -0 0 0 0 0 0 0 -0 -0 -0 0 0 0 0 0 0 0 0 0 0 0 0 0
0 -0 -0 -0 0 0 0 0 0 0 0 0 0 0 0 0 0 0 0 0 0 0 0 0 0 0 0 0 0 -0 -0 -0 0 0 0 0 0 0 0 0 0 0 -0 0
0 0 0 0 0 0 0 0 0 0 0 0 0 0 0 0 0 0 0 0 0 0 0 0 0 0 0 0 -0 -0 -0 -0 0 0 0 0 0 0 0 0 0 0 0 0
0 0 0 0 0 0 0 0 0 0 0 0 0 0 0 0 0 0 0 0 0 0 0 0 0 0 0 0 0 -0 -0 -0 0 0 0 0 0 0 0 0 0 0 0 0
0 0 0 0 0 0 0 0 0 0 0 0 0 0 0 0 0 0 0 0 0 0 0 0 0 0 0 -0 0 0 -0 -0 -0 -0 0 0 0 0 0 0 0 0 0 0
0 0 0 0 0 0 0 0 0 0 0 0 0 0 0 0 0 0 0 0 0 0 0 0 0 0 0 0 0 0 -0 -0 -0 -0 -0 -0 -0 -0 0 0 0 0 0 0
0 0 0 0 0 0 0 0 0 0 0 0 0 0 0 0 0 0 0 -0 0 0 0 0 0 0 0 0 0 0 0 -0 -0 -0 -0 -0 -0 -0 -0 0 0 0 0 0
0 0 0 0 0 0 0 0 0 0 0 0 0 0 0 0 0 0 0 0 0 -0 -0 0 0 0 0 0 0 0 0 0 -0 -0 -0 -0 -0 -0 -0 0 0 0 0 0
0 0 0 0 0 0 0 0 -0 -0 0 0 0 0 0 0 -0 -0 0 0 0 0 0 0 0 0 0 0 0 0 0 0 0 -0 0 -0 -0 -0 -0 -0 -0 0 0 0
Wind_Speed_500mb
5 19 30 28 37 21 23 28 22 26 39 27 33 32 40 38 28 31 33 35 38 40 42 46 54 46 34 8 10 6 15 21 48 46 48 46 45 47 41 41 47 45 42 41
14 8 21 29 35 25 22 25 32 23 34 25 45 56 35 34 28 28 29 29 31 35 39 46 45 48 47 33 10 9 1 3 10 25 17 31 34 41 43 44 43 46 47 48
20 11 10 16 15 8 9 12 33 32 25 37 32 38 34 29 23 24 25 24 26 29 32 35 38 37 43 42 31 21 17 14 11 3 7 11 24 30 32 39 45 49 52 53
17 14 23 16 15 19 20 12 30 30 31 35 37 36 33 24 19 18 19 18 20 21 22 24 26 29 29 30 37 33 27 25 25 21 12 10 22 25 25 35 44 49 53 55
21 23 22 15 6 9 17 25 30 30 32 34 33 43 28 21 16 14 13 12 13 14 17 19 22 25 22 28 29 28 33 30 29 27 24 23 19 23 33 37 42 48 50 54
13 28 27 9 23 10 5 21 21 40 26 27 22 20 22 21 13 9 8 9 10 12 13 13 17 20 21 22 23 22 24 27 27 24 25 22 22 31 33 38 43 47 56 56
17 15 12 18 11 6 15 7 33 22 29 18 9 22 30 19 13 9 9 10 13 13 13 13 17 20 20 20 21 24 18 19 22 22 22 21 22 23 27 35 40 42 52 55
17 20 15 23 12 7 21 30 25 23 24 20 22 21 19 14 12 10 9 11 14 13 13 16 19 20 19 19 22 22 29 26 23 29 26 26 27 27 27 29 29 27 28 38
11 9 15 16 34 30 30 31 24 28 20 22 18 16 14 9 7 6 7 9 11 12 12 9 13 16 22 27 31 31 29 30 33 26 39 34 33 32 27 20 27 32 28 31
7 16 13 19 16 20 26 29 23 25 23 17 17 14 12 9 6 1 3 7 9 10 11 14 20 22 25 33 32 30 33 29 35 36 31 46 35 33 30 28 29 35 30 29
14 7 8 13 13 16 18 24 24 22 21 18 15 13 9 7 5 3 1 4 7 10 13 15 18 22 22 31 34 31 29 32 27 36 33 40 46 33 36 38 41 45 47 49
10 13 21 16 29 24 24 25 24 24 20 17 15 13 9 7 5 2 3 6 9 13 16 17 20 19 19 19 29 35 31 28 29 34 32 37 40 44 48 46 38 42 46 49
16 14 15 17 29 31 31 26 24 20 18 17 15 11 7 6 5 6 3 5 9 15 19 20 23 22 26 29 30 30 31 36 34 40 45 42 42 43 46 49 52 50 41 46
27 14 15 11 15 28 27 27 23 20 19 18 17 13 8 6 3 5 6 8 8 10 13 16 19 23 26 32 36 39 39 39 35 38 44 48 49 54 58 61 59 58 54 43
24 21 18 15 26 28 30 26 22 24 23 21 21 16 12 8 6 6 6 2 4 6 10 13 20 22 24 30 34 38 38 41 46 47 46 48 55 64 61 59 59 60 56 55
16 19 18 17 18 21 33 29 30 32 28 25 25 18 16 9 8 6 5 5 4 6 10 12 15 18 23 33 39 37 41 44 47 50 50 59 52 53 61 59 64 64 63 61
11 27 24 34 28 22 37 34 35 33 25 23 22 23 15 14 13 11 10 9 8 8 5 9 18 16 24 29 35 40 43 48 49 53 48 48 63 65 62 67 63 54 65 61
21 17 17 19 21 23 27 36 34 33 38 34 28 24 19 21 20 15 12 11 6 6 8 8 16 29 26 29 33 38 41 43 47 52 56 56 56 60 71 73 74 68 54 44
17 24 29 27 27 31 32 34 35 37 42 36 34 31 28 27 27 21 17 13 10 7 1 12 19 22 24 29 36 38 39 42 45 49 53 58 62 64 64 66 73 79 80 63
28 27 33 35 34 40 38 35 39 40 38 38 44 44 40 35 31 25 22 18 15 13 13 14 18 18 28 31 46 34 42 44 47 50 53 55 57 62 66 71 73 82 94 88
20 20 29 29 31 32 39 61 42 43 53 49 56 55 47 44 38 34 31 28 26 25 11 15 12 21 24 39 34 44 47 49 59 58 54 52 56 59 61 63 63 69 70 64
17 19 15 22 26 37 36 35 38 38 43 60 54 59 54 48 43 39 39 33 33 22 12 12 13 28 36 35 36 57 58 63 64 59 57 57 56 53 55 56 58 57 55 58
25 28 29 29 30 30 32 33 36 37 41 43 58 60 57 43 44 44 46 37 27 27 19 21 24 31 39 29 34 51 52 62 62 59 56 53 54 52 54 51 52 51 52 55
20 24 28 33 38 33 37 39 32 38 34 38 45 54 65 45 38 38 28 23 31 33 18 30 29 31 31 17 32 40 46 55 55 52 51 48 48 48 47 46 45 45 45 43
17 24 33 37 38 34 31 23 23 27 29 29 37 47 62 46 32 24 36 36 32 23 22 26 22 30 32 17 26 37 39 40 51 45 43 41 39 40 40 38 35 34 32 31
17 26 30 28 29 26 23 22 23 23 21 18 24 44 31 28 29 24 23 28 25 12 10 22 32 29 24 19 31 38 35 39 51 34 37 37 33 33 33 29 24 19 15 13
15 26 29 27 26 17 14 14 11 16 13 19 28 38 27 38 25 21 20 19 16 11 11 17 20 18 19 21 27 30 27 23 43 39 29 29 32 29 33 31 23 18 14 9
Wind_Direction_500mb
153 289 327 211 221 228 248 273 83 101 144 136 123 119 115 111 99 86 72 60 54 48 45 41 38 31 31 62 181 319 76 197 248 197 218 219 207 209 219 219 231 239 235 232
273 259 312 323 198 211 237 270 136 114 93 105 109 111 122 118 112 94 80 66 57 51 45 37 32 40 29 30 6 9 336 98 21 224 214 224 226 219 211 220 231 236 242 238
252 212 307 276 284 162 269 287 129 139 164 129 126 115 106 109 106 97 84 69 56 48 44 41 32 30 44 21 12 347 334 302 3 16 215 155 208 231 227 230 232 235 241 245
267 277 224 247 13 316 214 207 85 134 142 134 129 128 123 122 115 94 80 69 53 44 37 36 33 29 38 40 25 9 357 329 318 318 337 233 240 243 237 239 243 241 240 240
255 232 237 160 196 234 245 115 116 129 143 129 145 127 128 129 118 102 82 66 48 29 23 20 24 14 23 24 39 17 12 3 351 335 306 307 290 264 252 251 247 251 250 248
250 246 248 11 104 54 349 154 120 145 154 155 175 182 154 146 122 94 63 41 20 7 12 7 5 0 3 5 19 354 10 360 359 358 359 344 308 278 271 266 259 251 249 250
237 260 119 131 108 115 179 106 146 160 155 141 148 68 115 124 109 84 61 31 12 2 355 349 347 343 350 352 348 319 328 337 333 332 343 341 325 313 285 271 265 262 256 251
243 245 230 137 152 232 97 113 126 104 127 135 120 132 134 123 109 91 60 36 22 11 354 346 342 334 332 331 309 308 314 304 308 309 309 314 315 315 317 295 289 277 288 276
25 37 86 45 100 122 127 129 135 132 136 149 158 153 148 142 123 79 63 42 27 10 3 347 303 290 294 288 289 292 293 304 296 292 301 302 303 309 314 310 310 306 305 302
335 156 145 111 112 130 142 145 143 149 153 168 162 158 154 156 149 118 22 14 6 19 6 351 347 344 335 324 308 298 295 302 310 298 295 304 297 298 293 293 294 293 290 292
261 247 133 147 167 163 152 152 161 159 163 162 167 156 153 158 172 196 256 324 347 352 346 342 334 330 326 330 320 307 300 284 293 304 297 292 296 286 293 279 279 281 282 284
251 247 204 206 191 179 173 174 174 173 170 170 167 160 149 164 184 208 311 302 324 331 332 330 330 329 313 307 331 321 310 309 288 278 277 293 293 292 281 272 279 286 294 296
258 319 247 210 178 186 191 195 189 188 186 181 175 175 178 174 195 286 302 307 302 319 327 329 338 337 337 330 318 306 312 299 287 292 276 273 281 295 296 294 291 277 276 285
316 254 234 196 205 198 195 201 185 195 196 198 196 192 196 188 257 277 267 276 295 310 313 324 331 336 327 332 332 326 319 298 299 301 293 291 289 293 291 289 286 287 291 271
272 285 263 234 213 205 196 203 189 211 215 211 203 208 206 225 237 240 243 236 288 316 335 333 333 333 332 329 326 324 319 314 306 285 278 275 273 276 283 292 284 282 283 282
261 245 272 253 248 203 197 208 217 218 214 221 207 207 200 222 211 207 205 238 287 323 314 325 329 331 332 334 329 327 319 311 305 305 293 277 277 285 287 288 288 282 279 279
244 254 229 247 243 214 215 216 224 231 242 224 219 196 192 207 218 219 235 239 245 272 305 324 317 335 328 334 320 315 309 309 305 300 292 290 275 272 278 276 272 286 275 272
244 242 237 236 238 257 261 233 225 227 231 224 206 206 198 214 226 231 236 228 226 293 278 324 301 325 337 324 323 313 312 307 301 295 293 291 282 277 272 273 269 273 269 287
240 243 237 233 240 238 228 242 239 234 229 210 208 209 209 217 223 224 220 223 244 260 219 322 302 330 328 330 330 328 321 312 306 301 290 287 287 286 280 274 271 272 264 273
253 250 264 261 259 259 259 256 248 240 240 222 213 206 208 215 219 223 225 234 242 239 296 284 319 332 340 332 338 339 334 331 325 318 306 298 292 287 283 279 276 273 262 260
266 272 262 260 258 262 255 264 275 255 250 243 227 214 211 216 224 222 225 233 220 245 279 310 322 305 336 343 353 350 349 340 335 329 320 310 302 296 291 287 282 273 268 270
276 282 286 283 285 284 280 266 266 260 257 240 251 221 212 211 222 229 227 236 233 236 242 254 263 329 344 341 346 352 349 345 335 328 322 318 313 305 300 293 283 277 275 271
317 312 308 307 310 304 300 294 286 280 265 253 234 228 214 215 223 226 229 233 226 225 241 236 282 322 338 346 328 343 344 343 335 334 329 322 318 314 307 300 292 288 277 276
313 315 320 313 299 297 288 290 289 280 275 263 244 230 223 220 221 217 206 203 201 215 249 255 289 315 324 309 330 341 349 342 342 340 336 332 329 325 316 306 298 294 290 285
335 338 322 313 309 299 285 288 288 286 270 261 234 225 217 193 214 213 216 204 210 233 250 264 281 305 309 285 312 333 348 334 349 348 349 349 345 343 335 326 314 300 292 289
12 354 342 333 326 308 297 291 292 276 249 245 217 183 169 198 186 193 193 195 205 229 276 280 284 287 305 277 293 332 347 344 347 352 4 2 359 4 4 353 342 331 319 299
20 9 12 10 24 12 328 320 340 313 263 222 210 199 172 171 195 195 182 196 203 233 252 292 288 278 275 277 297 322 334 349 352 359 355 357 6 20 25 22 26 34 49 58
Wind_Speed_850mb
5 19 30 28 37 21 23 28 22 26 39 27 33 32 40 38 28 31 33 35 38 40 42 46 54 46 34 8 10 6 15 21 48 46 48 46 45 47 41 41 47 45 42 41
14 8 21 29 35 25 22 25 32 23 34 25 45 56 35 34 28 28 29 29 31 35 39 46 45 48 47 33 10 9 1 3 10 25 17 31 34 41 43 44 43 46 47 48
20 11 10 16 15 8 9 12 33 32 25 37 32 38 34 29 23 24 25 24 26 29 32 35 38 37 43 42 31 21 17 14 11 3 7 11 24 30 32 39 45 49 52 53
17 14 23 16 15 19 20 12 30 30 31 35 37 36 33 24 19 18 19 18 20 21 22 24 26 29 29 30 37 33 27 25 25 21 12 10 22 25 25 35 44 49 53 55
21 23 22 15 6 9 17 25 30 30 32 34 33 43 28 21 16 14 13 12 13 14 17 19 22 25 22 28 29 28 33 30 29 27 24 23 19 23 33 37 42 48 50 54
13 28 27 9 23 10 5 21 21 40 26 27 22 20 22 21 13 9 8 9 10 12 13 13 17 20 21 22 23 22 24 27 27 24 25 22 22 31 33 38 43 47 56 56
17 15 12 18 11 6 15 7 33 22 29 18 9 22 30 19 13 9 9 10 13 13 13 13 17 20 20 20 21 24 18 19 22 22 22 21 22 23 27 35 40 42 52 55
17 20 15 23 12 7 21 30 25 23 24 20 22 21 19 14 12 10 9 11 14 13 13 16 19 20 19 19 22 22 29 26 23 29 26 26 27 27 27 29 29 27 28 38
11 9 15 16 34 30 30 31 24 28 20 22 18 16 14 9 7 6 7 9 11 12 12 9 13 16 22 27 31 31 29 30 33 26 39 34 33 32 27 20 27 32 28 31
7 16 13 19 16 20 26 29 23 25 23 17 17 14 12 9 6 1 3 7 9 10 11 14 20 22 25 33 32 30 33 29 35 36 31 46 35 33 30 28 29 35 30 29
14 7 8 13 13 16 18 24 24 22 21 18 15 13 9 7 5 3 1 4 7 10 13 15 18 22 22 31 34 31 29 32 27 36 33 40 46 33 36 38 41 45 47 49
10 13 21 16 29 24 24 25 24 24 20 17 15 13 9 7 5 2 3 6 9 13 16 17 20 19 19 19 29 35 31 28 29 34 32 37 40 44 48 46 38 42 46 49
16 14 15 17 29 31 31 26 24 20 18 17 15 11 7 6 5 6 3 5 9 15 19 20 23 22 26 29 30 30 31 36 34 40 45 42 42 43 46 49 52 50 41 46
27 14 15 11 15 28 27 27 23 20 19 18 17 13 8 6 3 5 6 8 8 10 13 16 19 23 26 32 36 39 39 39 35 38 44 48 49 54 58 61 59 58 54 43
24 21 18 15 26 28 30 26 22 24 23 21 21 16 12 8 6 6 6 2 4 6 10 13 20 22 24 30 34 38 38 41 46 47 46 48 55 64 61 59 59 60 56 55
16 19 18 17 18 21 33 29 30 32 28 25 25 18 16 9 8 6 5 5 4 6 10 12 15 18 23 33 39 37 41 44 47 50 50 59 52 53 61 59 64 64 63 61
11 27 24 34 28 22 37 34 35 33 25 23 22 23 15 14 13 11 10 9 8 8 5 9 18 16 24 29 35 40 43 48 49 53 48 48 63 65 62 67 63 54 65 61
21 17 17 19 21 23 27 36 34 33 38 34 28 24 19 21 20 15 12 11 6 6 8 8 16 29 26 29 33 38 41 43 47 52 56 56 56 60 71 73 74 68 54 44
17 24 29 27 27 31 32 34 35 37 42 36 34 31 28 27 27 21 17 13 10 7 1 12 19 22 24 29 36 38 39 42 45 49 53 58 62 64 64 66 73 79 80 63
28 27 33 35 34 40 38 35 39 40 38 38 44 44 40 35 31 25 22 18 15 13 13 14 18 18 28 31 46 34 42 44 47 50 53 55 57 62 66 71 73 82 94 88
20 20 29 29 31 32 39 61 42 43 53 49 56 55 47 44 38 34 31 28 26 25 11 15 12 21 24 39 34 44 47 49 59 58 54 52 56 59 61 63 63 69 70 64
17 19 15 22 26 37 36 35 38 38 43 60 54 59 54 48 43 39 39 33 33 22 12 12 13 28 36 35 36 57 58 63 64 59 57 57 56 53 55 56 58 57 55 58
25 28 29 29 30 30 32 33 36 37 41 43 58 60 57 43 44 44 46 37 27 27 19 21 24 31 39 29 34 51 52 62 62 59 56 53 54 52 54 51 52 51 52 55
20 24 28 33 38 33 37 39 32 38 34 38 45 54 65 45 38 38 28 23 31 33 18 30 29 31 31 17 32 40 46 55 55 52 51 48 48 48 47 46 45 45 45 43
17 24 33 37 38 34 31 23 23 27 29 29 37 47 62 46 32 24 36 36 32 23 22 26 22 30 32 17 26 37 39 40 51 45 43 41 39 40 40 38 35 34 32 31
17 26 30 28 29 26 23 22 23 23 21 18 24 44 31 28 29 24 23 28 25 12 10 22 32 29 24 19 31 38 35 39 51 34 37 37 33 33 33 29 24 19 15 13
15 26 29 27 26 17 14 14 11 16 13 19 28 38 27 38 25 21 20 19 16 11 11 17 20 18 19 21 27 30 27 23 43 39 29 29 32 29 33 31 23 18 14 9
Wind_Direction_850mb
153 289 327 211 221 228 248 273 83 101 144 136 123 119 115 111 99 86 72 60 54 48 45 41 38 31 31 62 181 319 76 197 248 197 218 219 207 209 219 219 231 239 235 232
273 259 312 323 198 211 237 270 136 114 93 105 109 111 122 118 112 94 80 66 57 51 45 37 32 40 29 30 6 9 336 98 21 224 214 224 226 219 211 220 231 236 242 238
252 212 307 276 284 162 269 287 129 139 164 129 126 115 106 109 106 97 84 69 56 48 44 41 32 30 44 21 12 347 334 302 3 16 215 155 208 231 227 230 232 235 241 245
267 277 224 247 13 316 214 207 85 134 142 134 129 128 123 122 115 94 80 69 53 44 37 36 33 29 38 40 25 9 357 329 318 318 337 233 240 243 237 239 243 241 240 240
255 232 237 160 196 234 245 115 116 129 143 129 145 127 128 129 118 102 82 66 48 29 23 20 24 14 23 24 39 17 12 3 351 335 306 307 290 264 252 251 247 251 250 248
250 246 248 11 104 54 349 154 120 145 154 155 175 182 154 146 122 94 63 41 20 7 12 7 5 0 3 5 19 354 10 360 359 358 359 344 308 278 271 266 259 251 249 250
237 260 119 131 108 115 179 106 146 160 155 141 148 68 115 124 109 84 61 31 12 2 355 349 347 343 350 352 348 319 328 337 333 332 343 341 325 313 285 271 265 262 256 251
243 245 230 137 152 232 97 113 126 104 127 135 120 132 134 123 109 91 60 36 22 11 354 346 342 334 332 331 309 308 314 304 308 309 309 314 315 315 317 295 289 277 288 276
25 37 86 45 100 122 127 129 135 132 136 149 158 153 148 142 123 79 63 42 27 10 3 347 303 290 294 288 289 292 293 304 296 292 301 302 303 309 314 310 310 306 305 302
335 156 145 111 112 130 142 145 143 149 153 168 162 158 154 156 149 118 22 14 6 19 6 351 347 344 335 324 308 298 295 302 310 298 295 304 297 298 293 293 294 293 290 292
261 247 133 147 167 163 152 152 161 159 163 162 167 156 153 158 172 196 256 324 347 352 346 342 334 330 326 330 320 307 300 284 293 304 297 292 296 286 293 279 279 281 282 284
251 247 204 206 191 179 173 174 174 173 170 170 167 160 149 164 184 208 311 302 324 331 332 330 330 329 313 307 331 321 310 309 288 278 277 293 293 292 281 272 279 286 294 296
258 319 247 210 178 186 191 195 189 188 186 181 175 175 178 174 195 286 302 307 302 319 327 329 338 337 337 330 318 306 312 299 287 292 276 273 281 295 296 294 291 277 276 285
316 254 234 196 205 198 195 201 185 195 196 198 196 192 196 188 257 277 267 276 295 310 313 324 331 336 327 332 332 326 319 298 299 301 293 291 289 293 291 289 286 287 291 271
272 285 263 234 213 205 196 203 189 211 215 211 203 208 206 225 237 240 243 236 288 316 335 333 333 333 332 329 326 324 319 314 306 285 278 275 273 276 283 292 284 282 283 282
261 245 272 253 248 203 197 208 217 218 214 221 207 207 200 222 211 207 205 238 287 323 314 325 329 331 332 334 329 327 319 311 305 305 293 277 277 285 287 288 288 282 279 279
244 254 229 247 243 214 215 216 224 231 242 224 219 196 192 207 218 219 235 239 245 272 305 324 317 335 328 334 320 315 309 309 305 300 292 290 275 272 278 276 272 286 275 272
244 242 237 236 238 257 261 233 225 227 231 224 206 206 198 214 226 231 236 228 226 293 278 324 301 325 337 324 323 313 312 307 301 295 293 291 282 277 272 273 269 273 269 287
240 243 237 233 240 238 228 242 239 234 229 210 208 209 209 217 223 224 220 223 244 260 219 322 302 330 328 330 330 328 321 312 306 301 290 287 287 286 280 274 271 272 264 273
253 250 264 261 259 259 259 256 248 240 240 222 213 206 208 215 219 223 225 234 242 239 296 284 319 332 340 332 338 339 334 331 325 318 306 298 292 287 283 279 276 273 262 260
266 272 262 260 258 262 255 264 275 255 250 243 227 214 211 216 224 222 225 233 220 245 279 310 322 305 336 343 353 350 349 340 335 329 320 310 302 296 291 287 282 273 268 270
276 282 286 283 285 284 280 266 266 260 257 240 251 221 212 211 222 229 227 236 233 236 242 254 263 329 344 341 346 352 349 345 335 328 322 318 313 305 300 293 283 277 275 271
317 312 308 307 310 304 300 294 286 280 265 253 234 228 214 215 223 226 229 233 226 225 241 236 282 322 338 346 328 343 344 343 335 334 329 322 318 314 307 300 292 288 277 276
313 315 320 313 299 297 288 290 289 280 275 263 244 230 223 220 221 217 206 203 201 215 249 255 289 315 324 309 330 341 349 342 342 340 336 332 329 325 316 306 298 294 290 285
335 338 322 313 309 299 285 288 288 286 270 261 234 225 217 193 214 213 216 204 210 233 250 264 281 305 309 285 312 333 348 334 349 348 349 349 345 343 335 326 314 300 292 289
12 354 342 333 326 308 297 291 292 276 249 245 217 183 169 198 186 193 193 195 205 229 276 280 284 287 305 277 293 332 347 344 347 352 4 2 359 4 4 353 342 331 319 299
20 9 12 10 24 12 328 320 340 313 263 222 210 199 172 171 195 195 182 196 203 233 252 292 288 278 275 277 297 322 334 349 352 359 355 357 6 20 25 22 26 34 49 58